Overview Statistics Trail Chart Weather Telemetry Raw packets
 

This is the latest recevied weather packets stored in our database for station/object WX5RP. If no packets are shown the sender has not sent any weather packets the latest 10 day(s).

<< 40 41 42 43 44 45 46 >>
Time Temp. Humidity Pressure Rain* Wind** Luminosity Snow
1777377316 -4.44° C 81% 1018.9 hPa 0 mm - 0 W/m² -
1777376717 -3.89° C 80% 1019.2 hPa 0 mm - 0 W/m² -
1777376116 -2.22° C 80% 1019 hPa 0 mm - 0 W/m² -
1777375515 -2.22° C 81% 1019.2 hPa 0 mm - 0 W/m² -
1777374915 -3.89° C 81% 1018.9 hPa 0 mm - 0 W/m² -
1777374316 -3.33° C 79% 1018.9 hPa 0 mm - 0 W/m² -
1777373715 -3.89° C 80% 1019 hPa 0 mm - 0 W/m² -
1777373116 -3.33° C 79% 1019 hPa 0 mm - 0 W/m² -
1777372516 -3.33° C 78% 1019.3 hPa 0 mm - 0 W/m² -
1777371915 -2.78° C 77% 1018.9 hPa 0 mm - 0 W/m² -
1777371319 -2.22° C 77% 1018.9 hPa 0 mm - 0 W/m² -
1777370715 -1.67° C 77% 1018.6 hPa 0 mm - 0 W/m² -
1777370115 -1.11° C 77% 1018.9 hPa 0 mm - 0 W/m² -
1777369516 -1.67° C 77% 1018.9 hPa 0 mm - 0 W/m² -
1777368915 -1.11° C 76% 1019.4 hPa 0 mm - 0 W/m² -
1777368315 -1.67° C 75% 1018.5 hPa 0 mm - 0 W/m² -
1777367715 -0.56° C 74% 1018.8 hPa 0 mm - 0 W/m² -
1777367117 -0.56° C 76% 1019.2 hPa 0 mm - 0 W/m² -
1777366518 -0.56° C 75% 1019 hPa 0 mm - 0 W/m² -
1777365917 0° C 74% 1019 hPa 0 mm - 0 W/m² -
1777365317 0° C 74% 1019.2 hPa 0 mm - 0 W/m² -
1777364717 0.56° C 74% 1018.7 hPa 0 mm - 0 W/m² -
1777364117 0° C 76% 1018.7 hPa 0 mm - 0 W/m² -
1777363517 -0.56° C 75% 1018.9 hPa 0 mm - 0 W/m² -
1777362917 -0.56° C 75% 1018.7 hPa 0 mm - 0 W/m² -

* Rain latest hour (hover to see other rain measurements)
** Current wind speed in m/s (hover to see current wind gust speed)